Year,Month,Day,Hour,Minute,Value (Times are PST for temperature in C)
2015,06,10,00,00,15.50
2015,06,10,00,01,15.50
2015,06,10,00,02,15.50
2015,06,10,00,03,15.50
2015,06,10,00,04,15.50
2015,06,10,00,05,15.50
2015,06,10,00,06,15.40
2015,06,10,00,07,15.40
2015,06,10,00,08,15.40
2015,06,10,00,09,15.40
2015,06,10,00,10,15.40
2015,06,10,00,11,15.40
2015,06,10,00,12,15.40
2015,06,10,00,13,15.40
2015,06,10,00,14,15.40
2015,06,10,00,15,15.40
2015,06,10,00,16,15.40
2015,06,10,00,17,15.40
2015,06,10,00,18,15.40
2015,06,10,00,19,15.40
2015,06,10,00,20,15.40
2015,06,10,00,21,15.30
2015,06,10,00,22,15.40
2015,06,10,00,23,15.30
2015,06,10,00,24,15.30
2015,06,10,00,25,15.30
2015,06,10,00,26,15.30
2015,06,10,00,27,15.30
2015,06,10,00,28,15.20
2015,06,10,00,29,15.20
2015,06,10,00,30,15.20
2015,06,10,00,31,15.20
2015,06,10,00,32,15.20
2015,06,10,00,33,15.20
2015,06,10,00,34,15.10
2015,06,10,00,35,15.10
2015,06,10,00,36,15.10
2015,06,10,00,37,15.10
2015,06,10,00,38,15.10
2015,06,10,00,39,15.10
2015,06,10,00,40,15.10
2015,06,10,00,41,15.10
2015,06,10,00,42,15.00
2015,06,10,00,43,15.00
2015,06,10,00,44,15.00
2015,06,10,00,45,15.00
2015,06,10,00,46,15.00
2015,06,10,00,47,15.00
2015,06,10,00,48,15.00
2015,06,10,00,49,14.90
2015,06,10,00,50,14.90
2015,06,10,00,51,14.90
2015,06,10,00,52,14.90
2015,06,10,00,53,14.90
2015,06,10,00,54,14.90
2015,06,10,00,55,14.90
2015,06,10,00,56,14.90
2015,06,10,00,57,14.80
2015,06,10,00,58,14.80
2015,06,10,00,59,14.80
2015,06,10,01,00,14.80
2015,06,10,01,01,14.80
2015,06,10,01,02,14.80
2015,06,10,01,03,14.80
2015,06,10,01,04,14.80
2015,06,10,01,05,14.80
2015,06,10,01,06,14.70
2015,06,10,01,07,14.70
2015,06,10,01,08,14.70
2015,06,10,01,09,14.70
2015,06,10,01,10,14.70
2015,06,10,01,11,14.70
2015,06,10,01,12,14.70
2015,06,10,01,13,14.70
2015,06,10,01,14,14.60
2015,06,10,01,15,14.60
2015,06,10,01,16,14.60
2015,06,10,01,17,14.60
2015,06,10,01,18,14.60
2015,06,10,01,19,14.60
2015,06,10,01,20,14.60
2015,06,10,01,21,14.60
2015,06,10,01,22,14.60
2015,06,10,01,23,14.60
2015,06,10,01,24,14.60
2015,06,10,01,25,14.50
2015,06,10,01,26,14.50
2015,06,10,01,27,14.50
2015,06,10,01,28,14.50
2015,06,10,01,29,14.50
2015,06,10,01,30,14.40
2015,06,10,01,31,14.40
2015,06,10,01,32,14.40
2015,06,10,01,33,14.40
2015,06,10,01,34,14.40
2015,06,10,01,35,14.40
2015,06,10,01,36,14.30
2015,06,10,01,37,14.30
2015,06,10,01,38,14.30
2015,06,10,01,39,14.30
2015,06,10,01,40,14.30
2015,06,10,01,41,14.30
2015,06,10,01,42,14.30
2015,06,10,01,43,14.20
2015,06,10,01,44,14.20
2015,06,10,01,45,14.20
2015,06,10,01,46,14.20
2015,06,10,01,47,14.20
2015,06,10,01,48,14.20
2015,06,10,01,49,14.20
2015,06,10,01,50,14.20
2015,06,10,01,51,14.10
2015,06,10,01,52,14.10
2015,06,10,01,53,14.10
2015,06,10,01,54,14.10
2015,06,10,01,55,14.10
2015,06,10,01,56,14.10
2015,06,10,01,57,14.10
2015,06,10,01,58,14.00
2015,06,10,01,59,14.00
2015,06,10,02,00,14.00
2015,06,10,02,01,14.00
2015,06,10,02,02,14.00
2015,06,10,02,03,14.00
2015,06,10,02,04,14.00
2015,06,10,02,05,13.90
2015,06,10,02,06,13.90
2015,06,10,02,07,13.90
2015,06,10,02,08,13.90
2015,06,10,02,09,13.90
2015,06,10,02,10,13.90
2015,06,10,02,11,13.90
2015,06,10,02,12,13.90
2015,06,10,02,13,13.90
2015,06,10,02,14,13.90
2015,06,10,02,15,13.80
2015,06,10,02,16,13.80
2015,06,10,02,17,13.80
2015,06,10,02,18,13.80
2015,06,10,02,19,13.80
2015,06,10,02,20,13.80
2015,06,10,02,21,13.80
2015,06,10,02,22,13.80
2015,06,10,02,23,13.80
2015,06,10,02,24,13.80
2015,06,10,02,25,13.80
2015,06,10,02,26,13.80
2015,06,10,02,27,13.80
2015,06,10,02,28,13.80
2015,06,10,02,29,13.80
2015,06,10,02,30,13.80
2015,06,10,02,31,13.80
2015,06,10,02,32,13.80
2015,06,10,02,33,13.80
2015,06,10,02,34,13.80
2015,06,10,02,35,13.80
2015,06,10,02,36,13.80
2015,06,10,02,37,13.80
2015,06,10,02,38,13.80
2015,06,10,02,39,13.80
2015,06,10,02,40,13.80
2015,06,10,02,41,13.70
2015,06,10,02,42,13.70
2015,06,10,02,43,13.70
2015,06,10,02,44,13.70
2015,06,10,02,45,13.70
2015,06,10,02,46,13.70
2015,06,10,02,47,13.70
2015,06,10,02,48,13.70
2015,06,10,02,49,13.70
2015,06,10,02,50,13.70
2015,06,10,02,51,13.70
2015,06,10,02,52,13.70
2015,06,10,02,53,13.70
2015,06,10,02,54,13.70
2015,06,10,02,55,13.70
2015,06,10,02,56,13.70
2015,06,10,02,57,13.60
2015,06,10,02,58,13.60
2015,06,10,02,59,13.60
2015,06,10,03,00,13.60
2015,06,10,03,01,13.60
2015,06,10,03,02,13.60
2015,06,10,03,03,13.60
2015,06,10,03,04,13.60
2015,06,10,03,05,13.60
2015,06,10,03,06,13.60
2015,06,10,03,07,13.60
2015,06,10,03,08,13.60
2015,06,10,03,09,13.60
2015,06,10,03,10,13.60
2015,06,10,03,11,13.50
2015,06,10,03,12,13.50
2015,06,10,03,13,13.50
2015,06,10,03,14,13.50
2015,06,10,03,15,13.50
2015,06,10,03,16,13.50
2015,06,10,03,17,13.50
2015,06,10,03,18,13.50
2015,06,10,03,19,13.50
2015,06,10,03,20,13.40
2015,06,10,03,21,13.40
2015,06,10,03,22,13.40
2015,06,10,03,23,13.40
2015,06,10,03,24,13.40
2015,06,10,03,25,13.40
2015,06,10,03,26,13.40
2015,06,10,03,27,13.30
2015,06,10,03,28,13.30
2015,06,10,03,29,13.30
2015,06,10,03,30,13.30
2015,06,10,03,31,13.30
2015,06,10,03,32,13.30
2015,06,10,03,33,13.30
2015,06,10,03,34,13.20
2015,06,10,03,35,13.20
2015,06,10,03,36,13.20
2015,06,10,03,37,13.20
2015,06,10,03,38,13.20
2015,06,10,03,39,13.20
2015,06,10,03,40,13.20
2015,06,10,03,41,13.10
2015,06,10,03,42,13.00
2015,06,10,03,43,13.00
2015,06,10,03,44,12.90
2015,06,10,03,45,12.80
2015,06,10,03,46,12.80
2015,06,10,03,47,12.70
2015,06,10,03,48,12.70
2015,06,10,03,49,12.60
2015,06,10,03,50,12.60
2015,06,10,03,51,12.50
2015,06,10,03,52,12.50
2015,06,10,03,53,12.40
2015,06,10,03,54,12.40
2015,06,10,03,55,12.30
2015,06,10,03,56,12.30
2015,06,10,03,57,12.20
2015,06,10,03,58,12.20
2015,06,10,03,59,12.10
2015,06,10,04,00,12.10
2015,06,10,04,01,12.00
2015,06,10,04,02,12.00
2015,06,10,04,03,12.00
2015,06,10,04,04,12.00
2015,06,10,04,05,11.90
2015,06,10,04,06,11.90
2015,06,10,04,07,11.90
2015,06,10,04,08,11.90
2015,06,10,04,09,11.90
2015,06,10,04,10,11.90
2015,06,10,04,11,11.90
2015,06,10,04,12,11.90
2015,06,10,04,13,11.80
2015,06,10,04,14,11.80
2015,06,10,04,15,11.80
2015,06,10,04,16,11.70
2015,06,10,04,17,11.70
2015,06,10,04,18,11.60
2015,06,10,04,19,11.60
2015,06,10,04,20,11.50
2015,06,10,04,21,11.50
2015,06,10,04,22,11.50
2015,06,10,04,23,11.50
2015,06,10,04,24,11.40
2015,06,10,04,25,11.40
2015,06,10,04,26,11.40
2015,06,10,04,27,11.40
2015,06,10,04,28,11.40
2015,06,10,04,29,11.40
2015,06,10,04,30,11.40
2015,06,10,04,31,11.40
2015,06,10,04,32,11.40
2015,06,10,04,33,11.40
2015,06,10,04,34,11.40
2015,06,10,04,35,11.40
2015,06,10,04,36,11.40
2015,06,10,04,37,11.40
2015,06,10,04,38,11.30
2015,06,10,04,39,11.30
2015,06,10,04,40,11.30
2015,06,10,04,41,11.30
2015,06,10,04,42,11.30
2015,06,10,04,43,11.20
2015,06,10,04,44,11.20
2015,06,10,04,45,11.20
2015,06,10,04,46,11.20
2015,06,10,04,47,11.20
2015,06,10,04,48,11.20
2015,06,10,04,49,11.20
2015,06,10,04,50,11.20
2015,06,10,04,51,11.20
2015,06,10,04,52,11.10
2015,06,10,04,53,11.10
2015,06,10,04,54,11.10
2015,06,10,04,55,11.10
2015,06,10,04,56,11.10
2015,06,10,04,57,11.10
2015,06,10,04,58,11.10
2015,06,10,04,59,11.10
2015,06,10,05,00,11.10
2015,06,10,05,01,11.00
2015,06,10,05,02,11.00
2015,06,10,05,03,11.00
2015,06,10,05,04,10.90
2015,06,10,05,05,10.90
2015,06,10,05,06,10.90
2015,06,10,05,07,10.90
2015,06,10,05,08,10.90
2015,06,10,05,09,10.90
2015,06,10,05,10,10.90
2015,06,10,05,11,10.90
2015,06,10,05,12,10.90
2015,06,10,05,13,10.90
2015,06,10,05,14,10.90
2015,06,10,05,15,10.90
2015,06,10,05,16,10.80
2015,06,10,05,17,10.80
2015,06,10,05,18,10.80
2015,06,10,05,19,10.80
2015,06,10,05,20,10.80
2015,06,10,05,21,10.80
2015,06,10,05,22,10.80
2015,06,10,05,23,10.80
2015,06,10,05,24,10.80
2015,06,10,05,25,10.80
2015,06,10,05,26,10.80
2015,06,10,05,27,10.80
2015,06,10,05,28,10.80
2015,06,10,05,29,10.80
2015,06,10,05,30,10.80
2015,06,10,05,31,10.80
2015,06,10,05,32,10.70
2015,06,10,05,33,10.70
2015,06,10,05,34,10.70
2015,06,10,05,35,10.70
2015,06,10,05,36,10.70
2015,06,10,05,37,10.70
2015,06,10,05,38,10.70
2015,06,10,05,39,10.70
2015,06,10,05,40,10.70
2015,06,10,05,41,10.80
2015,06,10,05,42,10.80
2015,06,10,05,43,10.80
2015,06,10,05,44,10.80
2015,06,10,05,45,10.80
2015,06,10,05,46,10.80
2015,06,10,05,47,10.90
2015,06,10,05,48,10.90
2015,06,10,05,49,11.00
2015,06,10,05,50,11.00
2015,06,10,05,51,11.10
2015,06,10,05,52,11.10
2015,06,10,05,53,11.10
2015,06,10,05,54,11.10
2015,06,10,05,55,11.10
2015,06,10,05,56,11.20
2015,06,10,05,57,11.20
2015,06,10,05,58,11.20
2015,06,10,05,59,11.20
2015,06,10,06,00,11.20
2015,06,10,06,01,11.20
2015,06,10,06,02,11.20
2015,06,10,06,03,11.20
2015,06,10,06,04,11.20
2015,06,10,06,05,11.20
2015,06,10,06,06,11.20
2015,06,10,06,07,11.20
2015,06,10,06,08,11.30
2015,06,10,06,09,11.30
2015,06,10,06,10,11.30
2015,06,10,06,11,11.30
2015,06,10,06,12,11.40
2015,06,10,06,13,11.40
2015,06,10,06,14,11.40
2015,06,10,06,15,11.40
2015,06,10,06,16,11.50
2015,06,10,06,17,11.50
2015,06,10,06,18,11.60
2015,06,10,06,19,11.60
2015,06,10,06,20,11.60
2015,06,10,06,21,11.60
2015,06,10,06,22,11.70
2015,06,10,06,23,11.70
2015,06,10,06,24,11.70
2015,06,10,06,25,11.70
2015,06,10,06,26,11.80
2015,06,10,06,27,11.80
2015,06,10,06,28,11.80
2015,06,10,06,29,11.80
2015,06,10,06,30,11.80
2015,06,10,06,31,11.90
2015,06,10,06,32,11.90
2015,06,10,06,33,11.90
2015,06,10,06,34,12.00
2015,06,10,06,35,12.00
2015,06,10,06,36,12.10
2015,06,10,06,37,12.10
2015,06,10,06,38,12.20
2015,06,10,06,39,12.20
2015,06,10,06,40,12.30
2015,06,10,06,41,12.30
2015,06,10,06,42,12.30
2015,06,10,06,43,12.40
2015,06,10,06,44,12.40
2015,06,10,06,45,12.50
2015,06,10,06,46,12.60
2015,06,10,06,47,12.60
2015,06,10,06,48,12.60
2015,06,10,06,49,12.70
2015,06,10,06,50,12.70
2015,06,10,06,51,12.70
2015,06,10,06,52,12.70
2015,06,10,06,53,12.70
2015,06,10,06,54,12.80
2015,06,10,06,55,12.80
2015,06,10,06,56,12.80
2015,06,10,06,57,12.90
2015,06,10,06,58,12.90
2015,06,10,06,59,12.90
2015,06,10,07,00,13.00
2015,06,10,07,01,13.00
2015,06,10,07,02,13.00
2015,06,10,07,03,13.00
2015,06,10,07,04,13.10
2015,06,10,07,05,13.10
2015,06,10,07,06,13.10
2015,06,10,07,07,13.10
2015,06,10,07,08,13.20
2015,06,10,07,09,13.20
2015,06,10,07,10,13.20
2015,06,10,07,11,13.20
2015,06,10,07,12,13.30
2015,06,10,07,13,13.30
2015,06,10,07,14,13.30
2015,06,10,07,15,13.30
2015,06,10,07,16,13.30
2015,06,10,07,17,13.30
2015,06,10,07,18,13.30
2015,06,10,07,19,13.40
2015,06,10,07,20,13.40
2015,06,10,07,21,13.40
2015,06,10,07,22,13.40
2015,06,10,07,23,13.50
2015,06,10,07,24,13.50
2015,06,10,07,25,13.60
2015,06,10,07,26,13.60
2015,06,10,07,27,13.70
2015,06,10,07,28,13.70
2015,06,10,07,29,13.70
2015,06,10,07,30,13.80
2015,06,10,07,31,13.80
2015,06,10,07,32,13.80
2015,06,10,07,33,13.80
2015,06,10,07,34,13.90
2015,06,10,07,35,14.00
2015,06,10,07,36,14.00
2015,06,10,07,37,14.10
2015,06,10,07,38,14.20
2015,06,10,07,39,14.20
2015,06,10,07,40,14.20
2015,06,10,07,41,14.30
2015,06,10,07,42,14.30
2015,06,10,07,43,14.30
2015,06,10,07,44,14.40
2015,06,10,07,45,14.40
2015,06,10,07,46,14.40
2015,06,10,07,47,14.40
2015,06,10,07,48,14.40
2015,06,10,07,49,14.40
2015,06,10,07,50,14.40
2015,06,10,07,51,14.40
2015,06,10,07,52,14.40
2015,06,10,07,53,14.30
2015,06,10,07,54,14.30
2015,06,10,07,55,14.30
2015,06,10,07,56,14.30
2015,06,10,07,57,14.40
2015,06,10,07,58,14.40
2015,06,10,07,59,14.50
2015,06,10,08,00,14.50
2015,06,10,08,01,14.60
2015,06,10,08,02,14.60
2015,06,10,08,03,14.60
2015,06,10,08,04,14.60
2015,06,10,08,05,14.60
2015,06,10,08,06,14.60
2015,06,10,08,07,14.70
2015,06,10,08,08,14.70
2015,06,10,08,09,14.70
2015,06,10,08,10,14.70
2015,06,10,08,11,14.70
2015,06,10,08,12,14.80
2015,06,10,08,13,14.80
2015,06,10,08,14,14.80
2015,06,10,08,15,14.90
2015,06,10,08,16,14.90
2015,06,10,08,17,15.00
2015,06,10,08,18,15.10
2015,06,10,08,19,15.10
2015,06,10,08,20,15.20
2015,06,10,08,21,15.30
2015,06,10,08,22,15.30
2015,06,10,08,23,15.40
2015,06,10,08,24,15.40
2015,06,10,08,25,15.50
2015,06,10,08,26,15.60
2015,06,10,08,27,15.70
2015,06,10,08,28,15.80
2015,06,10,08,29,15.80
2015,06,10,08,30,15.80
2015,06,10,08,31,15.80
2015,06,10,08,32,15.80
2015,06,10,08,33,15.80
2015,06,10,08,34,15.80
2015,06,10,08,35,15.80
2015,06,10,08,36,15.90
2015,06,10,08,37,15.90
2015,06,10,08,38,15.80
2015,06,10,08,39,15.80
2015,06,10,08,40,15.80
2015,06,10,08,41,15.80
2015,06,10,08,42,15.80
2015,06,10,08,43,15.80
2015,06,10,08,44,15.80
2015,06,10,08,45,15.90
2015,06,10,08,46,15.90
2015,06,10,08,47,15.90
2015,06,10,08,48,15.90
2015,06,10,08,49,16.00
2015,06,10,08,50,16.00
2015,06,10,08,51,16.00
2015,06,10,08,52,16.00
2015,06,10,08,53,15.90
2015,06,10,08,54,15.90
2015,06,10,08,55,15.90
2015,06,10,08,56,15.90
2015,06,10,08,57,16.00
2015,06,10,08,58,16.00
2015,06,10,08,59,16.10
2015,06,10,09,00,16.20
2015,06,10,09,01,16.30
2015,06,10,09,02,16.30
2015,06,10,09,03,16.30
2015,06,10,09,04,16.40
2015,06,10,09,05,16.40
2015,06,10,09,06,16.40
2015,06,10,09,07,16.40
2015,06,10,09,08,16.50
2015,06,10,09,09,16.50
2015,06,10,09,10,16.60
2015,06,10,09,11,16.60
2015,06,10,09,12,16.60
2015,06,10,09,13,16.60
2015,06,10,09,14,16.60
2015,06,10,09,15,16.60
2015,06,10,09,16,16.70
2015,06,10,09,17,16.70
2015,06,10,09,18,16.80
2015,06,10,09,19,16.80
2015,06,10,09,20,16.80
2015,06,10,09,21,16.80
2015,06,10,09,22,16.80
2015,06,10,09,23,16.90
2015,06,10,09,24,16.90
2015,06,10,09,25,17.00
2015,06,10,09,26,17.00
2015,06,10,09,27,17.10
2015,06,10,09,28,17.00
2015,06,10,09,29,17.00
2015,06,10,09,30,17.00
2015,06,10,09,31,17.10
2015,06,10,09,32,17.10
2015,06,10,09,33,17.20
2015,06,10,09,34,17.20
2015,06,10,09,35,17.30
2015,06,10,09,36,17.30
2015,06,10,09,37,17.30
2015,06,10,09,38,17.30
2015,06,10,09,39,17.30
2015,06,10,09,40,17.30
2015,06,10,09,41,17.30
2015,06,10,09,42,17.30
2015,06,10,09,43,17.40
2015,06,10,09,44,17.40
2015,06,10,09,45,17.40
2015,06,10,09,46,17.50
2015,06,10,09,47,17.50
2015,06,10,09,48,17.60
2015,06,10,09,49,17.60
2015,06,10,09,50,17.70
2015,06,10,09,51,17.80
2015,06,10,09,52,17.80
2015,06,10,09,53,17.80
2015,06,10,09,54,17.80
2015,06,10,09,55,17.80
2015,06,10,09,56,17.80
2015,06,10,09,57,17.90
2015,06,10,09,58,17.90
2015,06,10,09,59,18.00
2015,06,10,10,00,18.00
2015,06,10,10,01,18.00
2015,06,10,10,02,18.10
2015,06,10,10,03,18.10
2015,06,10,10,04,18.20
2015,06,10,10,05,18.20
2015,06,10,10,06,18.30
2015,06,10,10,07,18.30
2015,06,10,10,08,18.30
2015,06,10,10,09,18.30
2015,06,10,10,10,18.30
2015,06,10,10,11,18.30
2015,06,10,10,12,18.30
2015,06,10,10,13,18.20
2015,06,10,10,14,18.20
2015,06,10,10,15,18.20
2015,06,10,10,16,18.20
2015,06,10,10,17,18.30
2015,06,10,10,18,18.30
2015,06,10,10,19,18.40
2015,06,10,10,20,18.40
2015,06,10,10,21,18.40
2015,06,10,10,22,18.40
2015,06,10,10,23,18.40
2015,06,10,10,24,18.40
2015,06,10,10,25,18.40
2015,06,10,10,26,18.40
2015,06,10,10,27,18.40
2015,06,10,10,28,18.50
2015,06,10,10,29,18.50
2015,06,10,10,30,18.40
2015,06,10,10,31,18.40
2015,06,10,10,32,18.50
2015,06,10,10,33,18.50
2015,06,10,10,34,18.60
2015,06,10,10,35,18.60
2015,06,10,10,36,18.70
2015,06,10,10,37,18.70
2015,06,10,10,38,18.70
2015,06,10,10,39,18.70
2015,06,10,10,40,18.80
2015,06,10,10,41,18.80
2015,06,10,10,42,18.90
2015,06,10,10,43,19.00
2015,06,10,10,44,19.10
2015,06,10,10,45,19.10
2015,06,10,10,46,19.10
2015,06,10,10,47,19.10
2015,06,10,10,48,19.10
2015,06,10,10,49,19.00
2015,06,10,10,50,18.90
2015,06,10,10,51,18.90
2015,06,10,10,52,18.80
2015,06,10,10,53,18.80
2015,06,10,10,54,18.80
2015,06,10,10,55,18.90
2015,06,10,10,56,18.90
2015,06,10,10,57,18.90
2015,06,10,10,58,19.00
2015,06,10,10,59,19.00
2015,06,10,11,00,18.90
2015,06,10,11,01,18.90
2015,06,10,11,02,18.90
2015,06,10,11,03,18.90
2015,06,10,11,04,18.90
2015,06,10,11,05,18.90
2015,06,10,11,06,19.00
2015,06,10,11,07,19.10
2015,06,10,11,08,19.20
2015,06,10,11,09,19.20
2015,06,10,11,10,19.30
2015,06,10,11,11,19.30
2015,06,10,11,12,19.30
2015,06,10,11,13,19.30
2015,06,10,11,14,19.30
2015,06,10,11,15,19.30
2015,06,10,11,16,19.30
2015,06,10,11,17,19.40
2015,06,10,11,18,19.40
2015,06,10,11,19,19.40
2015,06,10,11,20,19.50
2015,06,10,11,21,19.50
2015,06,10,11,22,19.50
2015,06,10,11,23,19.40
2015,06,10,11,24,19.40
2015,06,10,11,25,19.40
2015,06,10,11,26,19.40
2015,06,10,11,27,19.40
2015,06,10,11,28,19.40
2015,06,10,11,29,19.40
2015,06,10,11,30,19.40
2015,06,10,11,31,19.40
2015,06,10,11,32,19.50
2015,06,10,11,33,19.50
2015,06,10,11,34,19.40
2015,06,10,11,35,19.40
2015,06,10,11,36,19.40
2015,06,10,11,37,19.40
2015,06,10,11,38,19.40
2015,06,10,11,39,19.40
2015,06,10,11,40,19.40
2015,06,10,11,41,19.40
2015,06,10,11,42,19.50
2015,06,10,11,43,19.50
2015,06,10,11,44,19.50
2015,06,10,11,45,19.50
2015,06,10,11,46,19.60
2015,06,10,11,47,19.60
2015,06,10,11,48,19.60
2015,06,10,11,49,19.70
2015,06,10,11,50,19.70
2015,06,10,11,51,19.70
2015,06,10,11,52,19.80
2015,06,10,11,53,19.80
2015,06,10,11,54,19.90
2015,06,10,11,55,20.00
2015,06,10,11,56,20.00
2015,06,10,11,57,20.10
2015,06,10,11,58,20.10
2015,06,10,11,59,20.10
2015,06,10,12,00,20.10
2015,06,10,12,01,20.10
2015,06,10,12,02,20.10
2015,06,10,12,03,20.20
2015,06,10,12,04,20.20
2015,06,10,12,05,20.20
2015,06,10,12,06,20.20
2015,06,10,12,07,20.20
2015,06,10,12,08,20.20
2015,06,10,12,09,20.20
2015,06,10,12,10,20.20
2015,06,10,12,11,20.20
2015,06,10,12,12,20.20
2015,06,10,12,13,20.30
2015,06,10,12,14,20.30
2015,06,10,12,15,20.50
2015,06,10,12,16,20.60
2015,06,10,12,17,20.70
2015,06,10,12,18,20.70
2015,06,10,12,19,20.70
2015,06,10,12,20,20.70
2015,06,10,12,21,20.70
2015,06,10,12,22,20.70
2015,06,10,12,23,20.80
2015,06,10,12,24,20.90
2015,06,10,12,25,20.90
2015,06,10,12,26,21.00
2015,06,10,12,27,21.10
2015,06,10,12,28,21.10
2015,06,10,12,29,21.20
2015,06,10,12,30,21.20
2015,06,10,12,31,21.20
2015,06,10,12,32,21.20
2015,06,10,12,33,21.20
2015,06,10,12,34,21.30
2015,06,10,12,35,21.40
2015,06,10,12,36,21.50
2015,06,10,12,37,21.50
2015,06,10,12,38,21.50
2015,06,10,12,39,21.50
2015,06,10,12,40,21.50
2015,06,10,12,41,21.50
2015,06,10,12,42,21.50
2015,06,10,12,43,21.60
2015,06,10,12,44,21.60
2015,06,10,12,45,21.60
2015,06,10,12,46,21.60
2015,06,10,12,47,21.50
2015,06,10,12,48,21.60
2015,06,10,12,49,21.60
2015,06,10,12,50,21.70
2015,06,10,12,51,21.70
2015,06,10,12,52,21.70
2015,06,10,12,53,21.60
2015,06,10,12,54,21.60
2015,06,10,12,55,21.60
2015,06,10,12,56,21.50
2015,06,10,12,57,21.50
2015,06,10,12,58,21.50
2015,06,10,12,59,21.40
2015,06,10,13,00,21.40
2015,06,10,13,01,21.40
2015,06,10,13,02,21.40
2015,06,10,13,03,21.40
2015,06,10,13,04,21.50
2015,06,10,13,05,21.50
2015,06,10,13,06,21.60
2015,06,10,13,07,21.50
2015,06,10,13,08,21.60
2015,06,10,13,09,21.60
2015,06,10,13,10,21.60
2015,06,10,13,11,21.60
2015,06,10,13,12,21.60
2015,06,10,13,13,21.60
2015,06,10,13,14,21.60
2015,06,10,13,15,21.50
2015,06,10,13,16,21.50
2015,06,10,13,17,21.50
2015,06,10,13,18,21.50
2015,06,10,13,19,21.60
2015,06,10,13,20,21.60
2015,06,10,13,21,21.60
2015,06,10,13,22,21.60
2015,06,10,13,23,21.70
2015,06,10,13,24,21.70
2015,06,10,13,25,21.80
2015,06,10,13,26,21.80
2015,06,10,13,27,21.90
2015,06,10,13,28,22.00
2015,06,10,13,29,22.10
2015,06,10,13,30,22.20
2015,06,10,13,31,22.30
2015,06,10,13,32,22.40
2015,06,10,13,33,22.50
2015,06,10,13,34,22.60
2015,06,10,13,35,22.60
2015,06,10,13,36,22.60
2015,06,10,13,37,22.60
2015,06,10,13,38,22.50
2015,06,10,13,39,22.40
2015,06,10,13,40,22.30
2015,06,10,13,41,22.30
2015,06,10,13,42,22.30
2015,06,10,13,43,22.40
2015,06,10,13,44,22.30
2015,06,10,13,45,22.30
2015,06,10,13,46,22.30
2015,06,10,13,47,22.40
2015,06,10,13,48,22.40
2015,06,10,13,49,22.50
2015,06,10,13,50,22.60
2015,06,10,13,51,22.60
2015,06,10,13,52,22.60
2015,06,10,13,53,22.60
2015,06,10,13,54,22.50
2015,06,10,13,55,22.50
2015,06,10,13,56,22.50
2015,06,10,13,57,22.40
2015,06,10,13,58,22.40
2015,06,10,13,59,22.40
2015,06,10,14,00,22.50
2015,06,10,14,01,22.50
2015,06,10,14,02,22.60
2015,06,10,14,03,22.50
2015,06,10,14,04,22.50
2015,06,10,14,05,22.40
2015,06,10,14,06,22.40
2015,06,10,14,07,22.40
2015,06,10,14,08,22.40
2015,06,10,14,09,22.50
2015,06,10,14,10,22.60
2015,06,10,14,11,22.60
2015,06,10,14,12,22.70
2015,06,10,14,13,22.70
2015,06,10,14,14,22.70
2015,06,10,14,15,22.70
2015,06,10,14,16,22.80
2015,06,10,14,17,22.80
2015,06,10,14,18,22.80
2015,06,10,14,19,22.90
2015,06,10,14,20,22.90
2015,06,10,14,21,22.90
2015,06,10,14,22,22.90
2015,06,10,14,23,23.00
2015,06,10,14,24,23.00
2015,06,10,14,25,23.00
2015,06,10,14,26,23.10
2015,06,10,14,27,23.10
2015,06,10,14,28,23.10
2015,06,10,14,29,23.10
2015,06,10,14,30,23.10
2015,06,10,14,31,23.10
2015,06,10,14,32,23.00
2015,06,10,14,33,23.00
2015,06,10,14,34,23.00
2015,06,10,14,35,23.10
2015,06,10,14,36,23.10
2015,06,10,14,37,23.10
2015,06,10,14,38,23.10
2015,06,10,14,39,23.10
2015,06,10,14,40,23.20
2015,06,10,14,41,23.20
2015,06,10,14,42,23.30
2015,06,10,14,43,23.30
2015,06,10,14,44,23.30
2015,06,10,14,45,23.40
2015,06,10,14,46,23.40
2015,06,10,14,47,23.40
2015,06,10,14,48,23.40
2015,06,10,14,49,23.40
2015,06,10,14,50,23.50
2015,06,10,14,51,23.60
2015,06,10,14,52,23.60
2015,06,10,14,53,23.60
2015,06,10,14,54,23.70
2015,06,10,14,55,23.80
2015,06,10,14,56,23.80
2015,06,10,14,57,23.80
2015,06,10,14,58,23.80
2015,06,10,14,59,23.80
2015,06,10,15,00,23.80
2015,06,10,15,01,23.80
2015,06,10,15,02,23.80
2015,06,10,15,03,23.90
2015,06,10,15,04,24.00
2015,06,10,15,05,24.00
2015,06,10,15,06,24.10
2015,06,10,15,07,24.10
2015,06,10,15,08,24.20
2015,06,10,15,09,24.10
2015,06,10,15,10,24.10
2015,06,10,15,11,24.10
2015,06,10,15,12,24.20
2015,06,10,15,13,24.20
2015,06,10,15,14,24.20
2015,06,10,15,15,24.20
2015,06,10,15,16,24.30
2015,06,10,15,17,24.30
2015,06,10,15,18,24.30
2015,06,10,15,19,24.30
2015,06,10,15,20,24.30
2015,06,10,15,21,24.30
2015,06,10,15,22,24.30
2015,06,10,15,23,24.30
2015,06,10,15,24,24.40
2015,06,10,15,25,24.30
2015,06,10,15,26,24.30
2015,06,10,15,27,24.20
2015,06,10,15,28,24.00
2015,06,10,15,29,24.00
2015,06,10,15,30,23.90
2015,06,10,15,31,24.00
2015,06,10,15,32,24.00
2015,06,10,15,33,24.10
2015,06,10,15,34,24.20
2015,06,10,15,35,24.20
2015,06,10,15,36,24.20
2015,06,10,15,37,24.10
2015,06,10,15,38,24.10
2015,06,10,15,39,24.00
2015,06,10,15,40,24.00
2015,06,10,15,41,24.00
2015,06,10,15,42,24.00
2015,06,10,15,43,24.00
2015,06,10,15,44,24.00
2015,06,10,15,45,23.90
2015,06,10,15,46,23.90
2015,06,10,15,47,23.90
2015,06,10,15,48,23.80
2015,06,10,15,49,23.80
2015,06,10,15,50,23.70
2015,06,10,15,51,23.80
2015,06,10,15,52,23.80
2015,06,10,15,53,23.80
2015,06,10,15,54,23.90
2015,06,10,15,55,23.90
2015,06,10,15,56,24.00
2015,06,10,15,57,24.00
2015,06,10,15,58,24.00
2015,06,10,15,59,24.00
2015,06,10,16,00,24.10
2015,06,10,16,01,24.10
2015,06,10,16,02,24.10
2015,06,10,16,03,24.10
2015,06,10,16,04,24.00
2015,06,10,16,05,24.10
2015,06,10,16,06,24.10
2015,06,10,16,07,24.00
2015,06,10,16,08,23.90
2015,06,10,16,09,23.90
2015,06,10,16,10,23.90
2015,06,10,16,11,23.90
2015,06,10,16,12,23.90
2015,06,10,16,13,23.90
2015,06,10,16,14,23.90
2015,06,10,16,15,24.00
2015,06,10,16,16,24.00
2015,06,10,16,17,24.10
2015,06,10,16,18,24.10
2015,06,10,16,19,24.20
2015,06,10,16,20,24.20
2015,06,10,16,21,24.20
2015,06,10,16,22,24.20
2015,06,10,16,23,24.10
2015,06,10,16,24,24.10
2015,06,10,16,25,24.10
2015,06,10,16,26,24.10
2015,06,10,16,27,24.10
2015,06,10,16,28,24.10
2015,06,10,16,29,24.10
2015,06,10,16,30,24.10
2015,06,10,16,31,24.10
2015,06,10,16,32,24.20
2015,06,10,16,33,24.20
2015,06,10,16,34,24.20
2015,06,10,16,35,24.30
2015,06,10,16,36,24.30
2015,06,10,16,37,24.40
2015,06,10,16,38,24.40
2015,06,10,16,39,24.40
2015,06,10,16,40,24.40
2015,06,10,16,41,24.40
2015,06,10,16,42,24.40
2015,06,10,16,43,24.40
2015,06,10,16,44,24.30
2015,06,10,16,45,24.30
2015,06,10,16,46,24.10
2015,06,10,16,47,24.10
2015,06,10,16,48,24.00
2015,06,10,16,49,23.90
2015,06,10,16,50,23.90
2015,06,10,16,51,23.90
2015,06,10,16,52,23.90
2015,06,10,16,53,24.00
2015,06,10,16,54,24.10
2015,06,10,16,55,24.20
2015,06,10,16,56,24.30
2015,06,10,16,57,24.30
2015,06,10,16,58,24.40
2015,06,10,16,59,24.40
2015,06,10,17,00,24.40
2015,06,10,17,01,24.40
2015,06,10,17,02,24.50
2015,06,10,17,03,24.50
2015,06,10,17,04,24.50
2015,06,10,17,05,24.50
2015,06,10,17,06,24.50
2015,06,10,17,07,24.60
2015,06,10,17,08,24.50
2015,06,10,17,09,24.40
2015,06,10,17,10,24.40
2015,06,10,17,11,24.40
2015,06,10,17,12,24.30
2015,06,10,17,13,24.30
2015,06,10,17,14,24.30
2015,06,10,17,15,24.30
2015,06,10,17,16,24.30
2015,06,10,17,17,24.30
2015,06,10,17,18,24.20
2015,06,10,17,19,24.20